Regional Weather Roundup
Issued by NWS

Home | Current Version | Previous Version | Text Only | Print | Product List | Glossary On
Versions: 1 2 3 4 5 6 7 8 9 10 11 12 13 14 15 16 17 18 19 20 21 22 23 24 25 26 27 28 29 30 31 32 33 34 35 36 37 38 39 40 41 42 43 44 45 46 47 48 49 50
000
ASUS42 KTBW 240617
RWRFL
FLORIDA REGIONAL WEATHER ROUNDUP
NATIONAL WEATHER SERVICE TAMPA BAY RUSKIN FL
200 AM EDT SUN MAY 24 2015

NOTE: "FAIR" INDICATES FEW OR NO CLOUDS BELOW 12,000 FEET WITH NO
SIGNIFICANT WEATHER AND/OR OBSTRUCTIONS TO VISIBILITY.


FLZ001>010-012>015-112-114-115-240700-
PANHANDLE FLORIDA

CITY           SKY/WX    TMP DP  RH WIND       PRES   REMARKS
PENSACOLA      PTCLDY    76  72  87 SE8       30.15F
PENSACOLA NAS  PTCLDY    78  72  81 SE9       30.15F
CRESTVIEW      PTCLDY    68  66  93 NE5       30.19S
VALPARAISO     PTCLDY    76  72  85 NE1       30.16F
MARY ESTHER    PTCLDY    73  69  88 CALM      30.15F
TRI COUNTY     FAIR      72  63  73 E3        30.20F
PANAMA CITY    FAIR      73  66  78 E5        30.18S
APALACHICOLA   CLEAR     82  71  69 E13G21    30.18S

STATION/POSITION SKY/WX   TEMP    WIND        PRES    WAVE   SWELL
                          AIR SEA DIR/SP/G            HT/PER HT/PER
                          (F)     (DEG/KT/KT) (MB)    (FT/S) (FT/S)
30.1N   87.6W              79 80  120/ 14/ 16 1020.1S   3/ 4
29.2N   88.2W              79 80  120/ 17/ 21 1020.4F   4/ 5
28.8N   86.0W              80 81  110/ 10/ 12 1021.2F   2/ 6   2/ 6
PANAMA CITY BEAC           77 79   70/  4/  5 1021.6F
CAPE SAN BLAS    NOT AVBL
TOWER C                    79     100/ 25/ 28 1021.4F
28.5N   84.5W              82 80  110/ 17/ 23 1021.0F   1/ 4

$$
FLZ011-016>038-118-127-128-134-139-239-240700-
NORTH FLORIDA

CITY           SKY/WX    TMP DP  RH WIND       PRES   REMARKS
MARIANNA       CLEAR     75  66  73 E9        30.20S
TALLAHASSEE    PTCLDY    76  67  73 E8        30.22F
PERRY          CLEAR     73  69  88 NE5       30.23S
CROSS CITY       N/A     74  69  85 CALM      30.22S
LAKE CITY      FAIR      70  68  94 CALM      30.24F
GAINESVILLE    CLOUDY    71  68  90 NE6       30.23F
MAYPORT NAS    CLEAR     76  67  73 E15       30.25F
JACKSONVILLE   PTCLDY    73  67  81 E8        30.24F
JAX NAS        PTCLDY    79  67  66 E10       30.25F
JAX CRAIG      PTCLDY    76  66  71 E10       30.25F
JAX CECIL      PTCLDY    72  68  88 NE3       30.25F
FERNANDINA BEA FAIR      81  70  69 E10G18    30.24F
ST AUGUSTINE   PTCLDY    77  69  76 E17       30.25F

STATION/POSITION SKY/WX   TEMP    WIND        PRES    WAVE   SWELL
                          AIR SEA DIR/SP/G            HT/PER HT/PER
                          (F)     (DEG/KT/KT) (MB)    (FT/S) (FT/S)
SHELL POINT                78      80/  7/ 14   N/A
KEATON BEACH               73      70/  7/  9 1023.3S
CEDAR KEY                  76      80/ 14/ 16 1023.2F
FERNANDINA                 76 79  100/  7/ 12 1024.2F
30.7N   81.3W                 78                N/A     5/ 6
MAYPORT                    76 76  100/ 10/ 17 1024.8F
31.4N   80.9W              75 75  100/ 16/ 19 1025.2F   5/ 5   2/ 9
ST AUGUSTINE               76 76   90/ 15/ 16 1024.7F

$$
FLZ040-043>046-052-053-057-058-063-144-240700-
INTERIOR CENTRAL FLORIDA

CITY           SKY/WX    TMP DP  RH WIND       PRES   REMARKS
OCALA          PTCLDY    73  68  83 E5        30.22F
THE VILLAGES     N/A     75  73  94 NE7       30.12S
LEESBURG       PTCLDY    76  71  85 E6        30.22F
SANFORD        CLEAR     76  70  82 E8        30.20F
ORLANDO EXEC   PTCLDY    76  71  85 E8        30.20F
ORLANDO INTL   PTCLDY    77  72  84 E8        30.20F
WINTER HAVEN   PTCLDY    77  72  84 E8        30.21F
LAKELAND       CLEAR     75  72  88 E7        30.20F
BARTOW         FAIR      73  73 100 E6        30.20F
OKEECHOBEE     PTCLDY    72  72 100 CALM      30.19S

$$
FLZ041-047-054-059-064-141-147-240700-
EAST CENTRAL FLORIDA

CITY           SKY/WX    TMP DP  RH WIND       PRES   REMARKS
DAYTONA BEACH  PTCLDY    77  68  73 E12       30.22F
DELAND           N/A     73  70  88 E6        30.22F
MELBOURNE      MOCLDY    78  73  84 E14       30.18F
VERO BEACH     MOCLDY    80  73  79 E8        30.18F
FT PIERCE      MOCLDY    80  74  81 E10       30.17F
STUART         PTCLDY    73  68  83 SE7       30.19F

STATION/POSITION SKY/WX   TEMP    WIND        PRES    WAVE   SWELL
                          AIR SEA DIR/SP/G            HT/PER HT/PER
                          (F)     (DEG/KT/KT) (MB)    (FT/S) (FT/S)
28.5N   80.2W              79 80   70/ 17/ 19 1022.8F
28.9N   78.5W              78 80   70/ 17/ 19 1023.3F
TRIDENT PIER               79 82   70/ 12/ 17 1023.4F
28.4N   80.5W                 80                N/A     4/ 5
27.5N   80.2W                 82                N/A     3/ 5

$$
FLZ050-056-061-142-242-148-248-149-249-151-251-155-255-
160-260-240700-
WEST CENTRAL FLORIDA

CITY           SKY/WX    TMP DP  RH WIND       PRES   REMARKS
CRYSTAL RIVER  FAIR      75  70  83 E6        30.21S
INVERNESS      FAIR      75  72  88 CALM      30.22S
BROOKSVILLE    CLEAR     73  70  90 E5        30.21S
CLEARWATER     MOCLDY    78  73  84 E14G22    30.18F
TAMPA INTL     PTCLDY    78  71  79 VRB6      30.19F
TAMPA EXEC     CLEAR     79  72  78 E5        30.20S
PLANT CITY     CLEAR     77  73  88 E7        30.21F
PETER O KNIGHT CLEAR     79  73  83 E9        30.19F
ST PETERSBURG  CLEAR     79  73  82 SE16      30.17F
SARASOTA       CLEAR     75  70  84 E10       30.16F
VENICE         FAIR      75  72  88 E8        30.17F

STATION/POSITION SKY/WX   TEMP    WIND        PRES    WAVE   SWELL
                          AIR SEA DIR/SP/G            HT/PER HT/PER
                          (F)     (DEG/KT/KT) (MB)    (FT/S) (FT/S)
CEDAR KEY                  76      80/ 14/ 16 1023.2F
28.5N   84.5W              82 80  110/ 17/ 23 1021.0F   1/ 4
27.3N   84.2W                 82                N/A     2/ 4
CLEARWATER BEACH           79 85   80/ 11/ 13 1022.3R
MIDDLE TAMPA BAY           78     110/ 14/ 16 1022.4S
VENICE                     76 84   80/  7/  9 1021.1F

$$
FLZ066-069-070-075>078-162-262-165-265-240700-
SOUTHWEST FLORIDA AND KEYS

CITY           SKY/WX    TMP DP  RH WIND       PRES   REMARKS
PUNTA GORDA    PTCLDY    73  72  96 E5        30.18F
FT MYERS       PTCLDY    76  74  93 E6        30.15F
SOUTHWEST INTL PTCLDY    75  73  93 E7        30.15F
NAPLES           N/A     76  32  20 E8        30.14F
MARCO ISLAND     N/A     73  70  88 E5        30.14F
IMMOKALEE      CLEAR    N/A N/A N/A CALM      30.16F
MARATHON       CLEAR     82  73  74 E13G18    30.11F
KEY WEST NAS   PTCLDY    81  71  71 E17       30.11F
KEY WEST INTL  PTCLDY    82  72  71 E15G22    30.12F

STATION/POSITION SKY/WX   TEMP    WIND        PRES    WAVE   SWELL
                          AIR SEA DIR/SP/G            HT/PER HT/PER
                          (F)     (DEG/KT/KT) (MB)    (FT/S) (FT/S)
VENICE                     76 84   80/  7/  9 1021.1F
NAPLES                     76 85   80/  4/  7 1021.3F
26.0N   85.6W              81 82   90/ 16/ 17 1019.3F   2/ 4
DRY TORTUGAS               83     110/ 20/ 22 1019.9F
NW FL BAY                  83      90/ 18/ 22 1020.8
SAND KEY                   81     100/ 19/ 22 1019.6F
SOMBRERO KEY               81     100/ 21/ 22 1020.0F
LONG KEY                   82 85  110/ 18/ 20 1020.6F
MOLASSES REEF              81 83  110/ 16/ 18 1020.1F

$$
FLZ067-068-071>074-168-172>174-240700-
SOUTHEAST FLORIDA

CITY           SKY/WX    TMP DP  RH WIND       PRES   REMARKS
W PALM BEACH   PTCLDY    80  73  79 E12       30.16F
FT LAUDERDALE  PTCLDY    80  73  79 E15       30.14F
POMPANO BEACH  CLEAR     81  72  74 E12       30.15F
PEMBROKE PINES PTCLDY    80  71  74 E12       30.16F
OPA LOCKA      PTCLDY    80  71  74 E10       30.15F
MIAMI          PTCLDY    81  70  69 E12       30.14F
WEST KENDALL   CLEAR     79  72  79 E10       30.14F
HOMESTEAD      NOT AVBL

STATION/POSITION SKY/WX   TEMP    WIND        PRES    WAVE   SWELL
                          AIR SEA DIR/SP/G            HT/PER HT/PER
                          (F)     (DEG/KT/KT) (MB)    (FT/S) (FT/S)
PORT EVERGLADES            81      90/ 10/ 14 1020.8F
VIRGINIA KEY               81 85  100/ 13/ 17 1020.9F
LAKE WORTH                 81 83  100/ 12/ 15 1021.4F
SETTLEMENT POINT           80     100/ 14/ 17 1022.2F

$$



USA.gov is the U.S. government's official web portal to all federal, state and local government web resources and services.